Flag for Germany Weather past 2 weeks in Coesfeld, North Rhine-Westphalia, Germany

Now
63 °F

Fog.


Feels Like: 63 °F
Forecast: 63 / 80 °F
Wind: 5 mph from Northeast

Location: Rheine-Bentlage

Current Time: Jul 28, 2014 at 6:56:44 AM

Latest Report: Jul 28, 2014 at 6:20 AM


Visibility: 0 mi

Pressure: 29.95 "Hg

Humidity: 100%

Dew point: 63 °F

Location of CoesfeldLocation

Historic Weather in Coesfeld — Graph

°F

Coesfeld temperature yesterday

Maximum temperature yesterday: 77 °F (at 3:20 PM)
Minimum temperature yesterday: 61 °F (at 5:20 AM)
Average temperature yesterday: 69 °F

Past Weeks' High & Low Weather Summary

 TemperatureHumidityPressure
High91 °F (Jul 19, 2:20 PM)100% (Jul 13, 5:20 AM)30.18 "Hg (Jul 13, 5:20 AM)
Low55 °F (Jul 15, 1:20 AM)28% (Jul 19, 4:20 PM)29.68 "Hg (Jul 13, 5:20 PM)
Average69 °F80%29.97 "Hg
* Reported Jul 13 5:20 AM — Jul 28 5:20 AM, Coesfeld, Weather by CustomWeather, © 2014

Note: Actual official high and low records may vary slightly from our data, if they occured in-between our weather recording intervals... More about our weather records

Advertising

Coesfeld weather history for previous 24 hours

 ConditionsComfort  
Time TempWeatherWind HumidityBarometerVisibility
5:20 AM
Jul 28
63 °FMild.2 mph94%29.95 "Hg0 mi
4:20 AM63 °FMild.3 mph94%29.95 "Hg1 mi
3:20 AM61 °FCool.1 mph100%29.95 "Hg0 mi
2:20 AM61 °FCool.1 mph100%29.98 "Hg0 mi
1:20 AM63 °FMild.1 mph100%29.98 "Hg1 mi
12:20 AM64 °FMild.1 mph100%29.98 "Hg1 mi
11:20 PM
Jul 27
64 °FMild.No wind100%29.98 "Hg1 mi
10:20 PM66 °FMild.No wind94%29.98 "HgN/A
9:20 PM68 °FMild.2 mph94%29.98 "HgN/A
8:20 PM75 °FMild.3 mph65%29.98 "HgN/A
7:20 PM77 °FWarm.6 mph47%29.95 "HgN/A
6:20 PM77 °FWarm.9 mph47%29.95 "HgN/A
5:20 PM77 °FWarm.8 mph51%29.95 "HgN/A
4:20 PM77 °FWarm.10 mph51%29.98 "HgN/A
3:20 PM77 °FWarm.7 mph54%29.98 "HgN/A
2:20 PM75 °FMild.9 mph57%29.98 "HgN/A
1:20 PM73 °FMild.5 mph57%29.98 "HgN/A
12:20 PM72 °FMild.5 mph61%29.98 "Hg5 mi
11:20 AM68 °FMild.6 mph83%29.98 "Hg3 mi
10:20 AM68 °FMild.5 mph69%29.98 "Hg5 mi
9:20 AM64 °FMild.5 mph94%29.98 "Hg1 mi
8:20 AM64 °FMild.5 mph100%29.98 "Hg1 mi
7:20 AM63 °FMild.3 mph100%29.95 "Hg0 mi
6:20 AM61 °FCool.2 mph100%29.95 "Hg1 mi
Weather by CustomWeather, © 2014

See weather overviewHow to use our weather pages